Hollywood, FL

9:57 PM EDT on October 21, 2019 (GMT -0400)
North Perry

Weather History for KHWO - August, 2019

Change the Weather History Date:

Friday, August 30, 2019

  Actual Average (KFLL) Record (KFLL)
Temperature  
Mean Temperature 84 °F -  
Max Temperature 90 °F 89 °F 98 °F (1964)
Min Temperature 78 °F 75 °F 68 °F (1969)
Cooling Degree Days 19    
Growing Degree Days 34 (Base 50)    
Moisture  
Dew Point 75 °F    
Average Humidity 79    
Maximum Humidity 94    
Minimum Humidity 57    
Precipitation  
Precipitation 0.33 in - - ()
Sea Level Pressure  
Sea Level Pressure 29.92 in    
Wind  
Wind Speed 7 mph (East)    
Max Wind Speed 21 mph    
Max Gust Speed 26 mph    
Visibility 9 miles    
Events Rain , Thunderstorm    
Averages and records for this station are not official NWS values.
T = Trace of Precipitation, MM = Missing Value Source: NWS Daily Summary

Daily Weather History Graph

Daily Weather History Graph

Search for Another Location

Airport or City:

Astronomy

Aug. 30, 2019 Rise Set
Actual Time 7:00 AM EDT 7:42 PM EDT
Civil Twilight 6:36 AM EDT 8:06 PM EDT
Nautical Twilight 6:09 AM EDT 8:33 PM EDT
Astronomical Twilight 5:40 AM EDT 9:01 PM EDT
Moon 7:04 AM EDT (8/30) 8:17 PM EDT (8/30)
Length of Visible Light 13h 29m
Length of Day
12h 42m
New Moon, 0% of the Moon is Illuminated
Aug 30
New Moon
Sep 5
First Quarter
Sep 14
Full
Sep 21
Last Quarter
Sep 28
New

Hourly Weather History & Observations

Time (EDT) Temp. Heat Index Dew Point Humidity Pressure Visibility Wind Dir Wind Speed Gust Speed Precip Events Conditions
12:53 AM 78.1 °F - 75.0 °F 90% 29.94 in 10.0 mi North 3.5 mph - N/A   Clear
1:53 AM 78.1 °F - 75.0 °F 90% 29.91 in 10.0 mi Calm Calm - N/A   Clear
2:53 AM 78.1 °F - 75.9 °F 93% 29.90 in 10.0 mi NW 4.6 mph - N/A   Clear
3:53 AM 78.1 °F - 75.9 °F 93% 29.89 in 10.0 mi NW 3.5 mph - N/A   Clear
4:53 AM 79.0 °F - 75.9 °F 90% 29.88 in 10.0 mi NNW 3.5 mph - N/A   Clear
5:53 AM 79.0 °F - 77.0 °F 94% 29.89 in 10.0 mi North 4.6 mph - 0.00 in   Scattered Clouds
6:06 AM 79.0 °F - 77.0 °F 94% 29.90 in 4.0 mi NNE 5.8 mph - 0.07 in Rain Heavy Rain
6:53 AM 79.0 °F - 75.9 °F 90% 29.92 in 10.0 mi NNE 6.9 mph - 0.14 in   Scattered Clouds
7:18 AM 79.0 °F - 75.0 °F 88% 29.92 in 2.5 mi NNE 10.4 mph 21.9 mph 0.08 in Rain Heavy Rain
7:40 AM 79.0 °F - 75.9 °F 90% 29.93 in 10.0 mi ESE 4.6 mph - 0.09 in Thunderstorm Scattered Clouds
7:53 AM 79.0 °F - 75.9 °F 90% 29.94 in 10.0 mi South 6.9 mph - 0.09 in Thunderstorm Mostly Cloudy
8:20 AM 78.1 °F - 73.0 °F 84% 29.95 in 10.0 mi East 4.6 mph - 0.00 in Rain Light Rain
8:53 AM 79.0 °F - 75.0 °F 88% 29.96 in 10.0 mi East 4.6 mph - 0.00 in   Mostly Cloudy
9:53 AM 82.0 °F 88.6 °F 75.0 °F 79% 29.95 in 10.0 mi NNE 3.5 mph - 0.00 in   Scattered Clouds
10:53 AM 84.0 °F 92.6 °F 75.9 °F 76% 29.95 in 10.0 mi NE 6.9 mph - N/A   Clear
11:53 AM 86.0 °F 96.0 °F 75.9 °F 72% 29.95 in 10.0 mi ESE 6.9 mph - 0.00 in   Scattered Clouds
12:53 PM 86.0 °F 96.9 °F 77.0 °F 74% 29.95 in 10.0 mi East 13.8 mph - N/A   Scattered Clouds
2:53 PM 89.1 °F 99.1 °F 75.0 °F 63% 29.91 in 10.0 mi ESE 13.8 mph - N/A   Scattered Clouds
3:53 PM 88.0 °F 96.5 °F 73.9 °F 63% 29.88 in 10.0 mi East 13.8 mph - N/A   Mostly Cloudy
4:01 PM 90.0 °F 97.9 °F 73.0 °F 57% 29.88 in 10.0 mi ESE 12.7 mph - N/A   Mostly Cloudy
4:53 PM 89.1 °F 97.0 °F 73.0 °F 59% 29.88 in 10.0 mi East 13.8 mph - N/A   Partly Cloudy
5:53 PM 88.0 °F 96.5 °F 73.9 °F 63% 29.88 in 10.0 mi East 20.7 mph 24.2 mph N/A   Mostly Cloudy
6:45 PM 87.1 °F 95.4 °F 73.9 °F 65% 29.90 in 10.0 mi East 11.5 mph - N/A   Mostly Cloudy
6:53 PM 87.1 °F 95.4 °F 73.9 °F 65% 29.91 in 10.0 mi East 15.0 mph - N/A   Mostly Cloudy
7:53 PM 86.0 °F 93.0 °F 73.0 °F 65% 29.93 in 10.0 mi East 11.5 mph - N/A   Partly Cloudy
8:53 PM 86.0 °F 93.8 °F 73.9 °F 67% 29.94 in 10.0 mi SE 16.1 mph - N/A   Scattered Clouds
9:07 PM 81.0 °F 87.9 °F 77.0 °F 88% 29.95 in 6.0 mi ESE 3.5 mph - 0.06 in Rain Rain
9:18 PM 82.0 °F 89.4 °F 75.9 °F 82% 29.95 in 10.0 mi ESE 6.9 mph - 0.06 in Rain Light Rain
9:53 PM 81.0 °F 87.9 °F 77.0 °F 88% 29.96 in 10.0 mi East 5.8 mph - 0.07 in   Partly Cloudy
10:53 PM 82.9 °F 90.8 °F 75.9 °F 79% 29.96 in 10.0 mi East 10.4 mph - N/A   Clear
11:53 PM 79.0 °F - 72.0 °F 79% 29.96 in 9.0 mi ESE 11.5 mph 26.5 mph 0.03 in Rain Light Rain